SCP
0 -0 -0 0 0 -0 -1 -1 -1 -0 -0 0 0 0 0 0 0 0 0 0 0 0 0 0 0 0 0 0 0 0 0 0 0 0 0 0 0 0 0 0 0 0 0
0 0 0 0 0 -0 -0 -0 -0 -0 0 0 0 0 0 0 0 0 0 0 0 0 0 0 0 0 0 0 0 0 0 0 0 0 0 0 0 0 0 0 0 0 0
-0 0 0 0 0 0 1 -0 -0 -0 0 0 0 0 0 0 0 0 0 0 0 0 0 0 0 0 0 0 0 0 0 0 0 0 0 0 0 0 0 0 0 0 0
-0 0 0 1 1 1 2 1 0 0 0 0 0 0 0 0 0 0 0 0 0 0 0 0 0 0 0 0 0 0 0 0 0 0 0 0 0 0 0 0 0 0 0
-0 -0 0 1 2 2 2 1 1 0 0 0 0 0 0 0 0 0 0 0 0 0 0 0 0 0 0 0 0 0 0 0 0 0 0 0 0 0 0 0 0 0 0
-0 -0 0 2 2 0 0 0 0 0 0 0 0 0 0 0 0 0 0 0 0 0 0 0 0 0 0 0 0 0 0 0 0 0 0 0 0 0 0 0 0 0 0
0 1 1 1 0 0 0 0 0 0 0 0 0 0 0 0 0 0 0 0 0 0 0 0 0 0 0 0 0 0 0 0 0 0 0 0 0 0 0 0 0 0 0
0 1 1 2 0 0 0 0 0 0 0 0 0 0 0 0 0 0 0 0 0 0 0 0 0 0 0 0 0 0 0 0 0 0 0 0 0 0 0 0 0 0 0
0 1 1 1 0 0 0 0 0 0 0 0 0 0 0 0 0 0 0 0 0 0 0 0 0 0 0 0 0 0 0 0 0 0 0 0 0 0 0 0 0 0 0
0 0 0 0 1 0 0 0 0 0 0 0 0 0 0 0 0 0 0 0 0 0 0 0 0 0 0 0 0 0 0 0 0 0 0 0 0 0 0 0 0 0 0
0 0 0 0 0 0 0 0 0 0 0 0 0 0 0 0 0 0 0 0 0 0 0 0 0 0 0 0 0 0 0 0 0 0 0 0 0 0 0 0 0 0 0
0 0 0 0 -0 0 0 0 0 0 0 0 0 0 0 0 0 0 0 0 0 0 0 0 0 0 0 0 0 0 0 0 0 0 0 0 0 0 0 0 0 0 0
0 0 0 0 0 0 0 0 0 0 0 0 0 0 0 0 0 0 0 0 0 0 0 0 0 0 0 0 0 0 0 0 0 0 0 0 0 0 0 0 0 0 0
0 0 0 0 0 0 0 0 0 0 0 0 0 0 0 0 0 0 0 0 0 0 0 0 0 0 0 0 0 0 0 0 0 0 0 0 0 0 0 0 0 0 0
0 0 0 0 0 0 0 0 0 0 0 0 0 0 0 0 0 0 0 0 0 0 0 0 0 0 0 0 0 0 0 0 0 0 0 0 0 0 0 0 0 0 0
0 0 0 1 0 0 0 0 0 0 0 0 0 0 0 0 0 0 0 0 0 0 0 0 0 0 0 0 0 0 0 0 0 0 0 0 0 0 0 0 0 0 0
0 0 0 0 0 0 0 0 0 0 0 0 0 0 0 0 0 0 0 0 0 0 0 0 0 0 0 0 0 0 0 0 0 0 0 0 0 0 0 0 0 0 0
0 0 0 0 0 0 0 0 0 0 0 0 0 0 0 0 0 0 0 0 0 0 0 0 0 0 0 0 0 0 0 0 0 0 0 0 0 0 0 0 0 0 0
0 0 0 0 0 0 0 0 0 0 0 0 0 0 0 0 0 0 0 0 0 0 0 0 0 0 0 0 0 0 0 0 0 0 0 0 0 0 0 0 0 0 0
0 0 0 0 0 0 0 0 0 0 0 0 0 0 0 0 0 0 0 0 0 0 0 0 0 0 0 0 0 0 0 0 0 0 0 0 0 0 0 0 0 0 0
0 0 0 0 0 0 0 0 0 0 0 0 0 0 0 0 0 0 0 0 0 0 0 0 0 0 0 0 0 0 0 0 0 0 0 0 0 0 0 0 0 0 0
0 0 0 0 0 0 0 0 0 0 0 0 0 0 0 0 0 0 0 0 0 0 0 0 0 0 0 0 0 0 0 0 0 0 0 0 0 0 0 0 0 -0 0
0 0 0 0 0 0 0 0 0 0 0 0 0 0 0 0 0 0 0 0 0 0 0 0 0 0 0 0 0 0 0 0 0 0 0 0 0 0 0 0 0 0 -0
0 0 0 0 0 0 0 0 0 0 0 0 0 0 0 0 0 0 0 0 0 0 0 0 0 0 0 0 0 0 0 0 0 0 0 0 0 0 0 0 0 0 0
0 0 0 0 0 0 0 0 0 0 0 0 0 0 0 0 0 0 0 0 0 0 0 0 0 0 0 0 0 0 0 0 0 0 0 0 0 0 0 0 0 0 0
0 0 0 0 0 0 0 0 0 0 0 0 0 0 0 0 0 0 0 0 0 0 0 0 0 0 0 0 0 0 0 0 0 0 0 0 0 0 0 0 0 0 0
Wind_Speed_500mb
43 49 49 47 49 51 58 57 55 47 39 36 31 28 26 20 18 20 22 21 20 20 18 20 22 26 30 34 37 39 41 42 41 27 11 9 15 30 23 30 33 33 32
46 49 47 47 47 46 52 55 51 43 40 36 32 30 28 27 25 25 27 24 22 20 18 20 22 25 29 33 37 39 39 39 43 37 18 18 11 33 19 30 35 39 34
52 54 53 51 47 49 52 52 48 45 40 37 34 32 32 30 33 33 29 26 20 17 17 19 21 25 31 36 38 38 37 32 31 37 25 17 18 40 25 31 33 41 35
57 58 63 62 59 53 50 46 42 37 37 36 34 26 25 33 36 33 29 24 18 15 15 15 19 24 30 34 38 38 37 33 29 23 26 26 24 27 29 37 34 39 38
69 69 66 67 58 54 46 39 36 29 30 40 34 28 30 35 38 36 30 24 18 13 11 12 16 21 30 33 35 35 35 34 28 27 23 25 26 25 33 43 47 40 35
65 62 62 52 57 57 44 15 6 23 39 45 43 37 35 42 43 38 32 23 15 10 8 8 13 22 27 30 30 34 34 31 26 21 24 27 26 29 33 42 48 45 40
58 60 62 58 70 58 42 39 19 49 49 53 50 44 42 38 38 35 28 19 12 7 4 6 13 21 26 27 29 33 32 28 21 23 21 21 21 25 29 33 39 46 41
48 54 64 73 82 67 67 58 34 53 57 58 57 51 47 41 39 32 25 17 10 5 1 7 17 24 26 26 30 32 29 24 22 24 22 18 22 26 27 27 31 34 36
35 47 59 78 91 87 68 47 40 54 58 56 59 56 50 41 40 35 25 19 12 7 5 9 17 22 23 26 33 29 23 19 19 20 22 26 24 24 24 21 22 25 29
24 39 55 69 87 84 70 44 48 48 58 60 60 58 48 43 42 36 28 21 14 12 12 14 18 21 29 31 31 25 20 18 19 20 25 28 25 24 21 20 19 19 24
24 36 45 52 73 76 77 63 55 63 61 59 62 58 51 49 44 36 29 22 17 15 15 17 19 25 30 30 24 18 15 15 19 23 24 25 25 22 21 21 21 23 25
26 32 40 47 63 71 76 62 57 58 54 61 63 60 54 48 44 37 31 24 20 15 17 20 23 29 31 25 18 14 16 20 22 24 24 25 24 23 24 22 23 24 28
32 34 39 48 59 69 80 73 66 59 58 60 63 60 55 50 43 36 30 25 21 17 17 18 24 28 22 14 14 14 16 18 20 24 27 30 27 21 20 23 24 28 33
36 39 44 53 57 68 76 83 72 66 63 64 64 62 58 49 42 38 35 28 22 19 15 20 23 16 8 9 13 16 19 21 23 25 26 22 19 16 20 21 27 30 33
40 54 61 61 57 61 71 89 80 74 69 69 67 63 53 46 42 42 34 28 22 13 15 17 11 5 6 11 15 20 23 23 20 18 18 17 14 15 18 22 29 29 28
47 53 58 66 72 72 75 80 88 80 74 72 67 59 55 47 47 41 36 28 16 9 10 10 5 6 7 14 19 19 18 19 18 18 18 13 17 20 23 24 25 27 29
42 48 58 64 67 66 72 77 87 85 78 73 70 65 63 58 52 43 36 25 15 10 12 8 7 5 7 11 12 13 14 17 19 20 18 16 18 24 26 25 26 27 30
37 37 36 38 45 58 64 64 74 85 82 77 74 73 68 58 51 43 33 20 13 11 12 12 9 4 1 5 10 10 10 13 19 20 20 20 22 28 33 34 28 27 25
36 33 29 30 35 44 53 59 60 86 83 81 80 73 64 58 51 42 29 22 15 15 19 14 11 4 2 3 8 10 9 12 13 17 17 21 29 36 37 34 29 27 25
15 17 17 17 23 32 44 49 58 84 83 83 80 72 63 58 50 38 28 20 17 20 18 16 10 7 5 5 5 8 10 11 10 13 18 24 32 39 40 35 29 27 29
15 17 17 15 17 24 36 51 69 82 81 75 72 68 62 53 43 35 25 21 23 22 22 17 13 9 8 6 7 10 12 10 10 13 16 21 33 40 39 34 32 33 36
21 19 19 17 19 29 45 59 69 74 72 73 70 67 61 52 40 29 26 27 28 26 22 19 16 11 9 9 11 10 12 13 16 20 24 24 32 38 37 31 29 30 30
23 22 19 17 23 36 48 60 65 62 64 65 71 67 57 44 31 28 35 40 33 28 24 22 17 13 12 12 10 9 13 15 18 22 24 25 30 34 28 31 31 32 30
20 17 18 23 35 46 48 48 54 60 64 64 62 57 44 37 33 36 44 43 37 30 26 23 17 13 13 12 9 8 9 11 17 23 27 24 26 27 27 25 28 32 35
19 20 23 32 43 50 47 47 52 54 58 63 53 48 43 34 37 46 46 38 31 26 23 21 15 11 11 9 6 2 7 12 16 20 20 16 16 17 19 22 25 27 31
22 25 32 47 60 61 58 56 54 57 54 56 63 56 47 41 49 52 44 37 30 26 21 16 12 9 5 5 6 6 9 11 14 13 17 14 14 14 16 20 23 27 33
Wind_Direction_500mb
218 223 224 229 233 229 224 219 216 212 218 230 231 224 212 195 179 164 148 132 117 101 88 79 63 50 38 34 28 23 18 12 14 30 11 331 287 9 17 13 11 4 1
216 217 218 221 223 223 215 211 213 218 232 238 238 225 201 179 166 155 143 133 119 107 93 75 56 44 34 25 21 18 18 16 11 17 6 353 345 350 358 2 7 4 2
213 214 213 213 213 214 210 212 219 226 238 245 224 203 187 174 165 157 150 137 126 109 83 64 49 38 28 21 16 14 13 17 13 11 27 357 344 337 337 346 347 355 357
216 218 213 213 214 210 209 216 223 231 244 235 233 219 214 186 174 163 155 146 131 103 80 59 42 31 22 15 11 6 3 6 7 7 4 1 350 343 328 333 338 345 343
215 214 213 213 206 207 207 210 221 234 239 237 225 216 199 193 180 169 164 153 133 103 73 51 31 18 14 10 4 359 354 352 354 356 357 350 344 337 330 327 333 335 341
223 215 213 202 202 207 205 175 3 329 253 233 227 208 210 200 187 177 173 161 142 115 81 45 15 5 2 359 357 353 347 343 339 342 348 344 340 335 333 325 327 330 334
229 215 202 194 204 198 161 154 296 276 247 230 219 207 209 210 197 189 177 168 153 124 82 20 354 350 348 349 353 348 340 336 329 325 333 339 336 334 329 324 322 326 332
236 216 203 201 205 190 183 217 259 235 227 216 214 208 205 204 197 194 185 183 174 164 223 328 334 337 335 338 350 343 335 323 319 323 331 342 337 329 325 321 321 330 330
225 209 205 211 210 204 203 224 255 217 214 212 212 207 204 201 199 195 193 196 192 208 250 304 322 327 331 339 343 336 327 318 319 323 332 338 339 338 332 325 328 327 326
200 205 209 212 211 203 206 221 225 216 211 208 207 206 206 199 198 199 200 203 210 233 260 296 320 327 331 333 335 331 317 312 315 321 327 329 334 341 335 329 327 322 319
213 211 220 217 209 207 213 211 215 205 205 205 204 204 200 196 197 200 205 212 223 238 262 289 310 327 333 336 335 331 319 317 321 322 324 331 339 341 338 333 325 320 321
222 215 221 217 207 211 216 213 210 208 204 205 200 198 199 198 196 202 209 215 225 249 279 294 316 325 329 328 332 332 326 323 323 324 330 332 336 335 333 333 326 322 325
231 225 221 219 212 217 216 217 213 208 205 203 200 199 196 194 199 206 214 219 232 252 277 298 315 316 318 328 333 334 332 330 329 327 326 324 325 326 330 336 328 325 326
249 241 236 235 225 218 215 214 209 207 204 201 200 199 195 196 205 211 215 226 233 253 273 307 308 304 324 329 334 332 327 327 325 325 328 338 343 336 337 340 342 337 336
254 250 250 243 230 219 215 212 210 206 202 199 198 197 196 200 214 211 215 225 230 258 292 305 281 298 315 322 330 332 331 339 344 343 343 351 6 354 349 339 330 333 331
264 259 255 249 241 228 222 214 207 202 198 196 194 193 200 209 209 211 217 221 220 254 294 275 249 267 311 333 338 349 0 15 33 36 26 29 8 357 351 352 349 335 331
281 277 269 263 252 236 228 222 210 201 196 195 194 200 205 211 207 208 213 204 216 270 267 204 213 250 327 342 359 11 21 38 32 27 22 20 11 9 2 359 357 353 344
288 289 283 271 252 242 231 219 214 200 197 195 197 202 202 202 201 204 194 200 218 239 187 185 205 223 320 23 13 23 29 26 15 30 34 26 12 356 346 339 339 339 339
284 289 288 273 259 244 231 217 206 200 196 196 199 199 202 201 200 191 187 198 214 188 186 197 191 193 150 61 49 41 36 12 24 27 23 10 359 353 349 350 349 348 343
299 306 302 275 248 229 225 214 205 198 197 197 198 199 200 201 188 183 185 198 189 187 197 189 190 181 159 124 70 53 58 45 41 24 8 358 357 357 358 -0 0 355 351
301 303 296 272 241 220 207 200 197 199 197 197 197 198 192 184 178 180 188 184 181 189 185 183 181 172 154 116 93 80 73 58 21 7 357 350 352 356 359 3 3 358 349
293 289 275 256 229 201 191 191 191 194 195 196 195 187 174 171 174 186 179 172 167 167 168 172 167 170 164 137 115 90 61 34 19 2 353 346 347 351 353 357 353 346 351
265 260 255 237 207 194 194 189 193 195 191 190 182 169 168 171 175 179 173 158 153 147 149 154 160 165 156 145 125 76 30 16 8 0 352 346 343 347 354 355 356 358 357
265 255 238 211 192 186 183 191 187 182 183 173 165 167 169 172 171 170 166 161 156 147 144 142 158 157 148 150 125 56 19 9 1 359 353 349 348 352 1 3 360 4 5
249 238 218 198 181 173 171 174 171 171 174 169 172 182 179 178 174 169 169 170 165 163 156 142 154 154 158 158 135 22 359 3 356 0 357 359 357 4 5 9 12 12 13
250 227 208 188 175 170 170 178 178 172 174 184 182 181 186 181 173 173 173 175 177 176 174 170 183 195 198 243 255 305 335 340 354 358 356 1 3 9 15 18 18 16 17
Wind_Speed_850mb
43 49 49 47 49 51 58 57 55 47 39 36 31 28 26 20 18 20 22 21 20 20 18 20 22 26 30 34 37 39 41 42 41 27 11 9 15 30 23 30 33 33 32
46 49 47 47 47 46 52 55 51 43 40 36 32 30 28 27 25 25 27 24 22 20 18 20 22 25 29 33 37 39 39 39 43 37 18 18 11 33 19 30 35 39 34
52 54 53 51 47 49 52 52 48 45 40 37 34 32 32 30 33 33 29 26 20 17 17 19 21 25 31 36 38 38 37 32 31 37 25 17 18 40 25 31 33 41 35
57 58 63 62 59 53 50 46 42 37 37 36 34 26 25 33 36 33 29 24 18 15 15 15 19 24 30 34 38 38 37 33 29 23 26 26 24 27 29 37 34 39 38
69 69 66 67 58 54 46 39 36 29 30 40 34 28 30 35 38 36 30 24 18 13 11 12 16 21 30 33 35 35 35 34 28 27 23 25 26 25 33 43 47 40 35
65 62 62 52 57 57 44 15 6 23 39 45 43 37 35 42 43 38 32 23 15 10 8 8 13 22 27 30 30 34 34 31 26 21 24 27 26 29 33 42 48 45 40
58 60 62 58 70 58 42 39 19 49 49 53 50 44 42 38 38 35 28 19 12 7 4 6 13 21 26 27 29 33 32 28 21 23 21 21 21 25 29 33 39 46 41
48 54 64 73 82 67 67 58 34 53 57 58 57 51 47 41 39 32 25 17 10 5 1 7 17 24 26 26 30 32 29 24 22 24 22 18 22 26 27 27 31 34 36
35 47 59 78 91 87 68 47 40 54 58 56 59 56 50 41 40 35 25 19 12 7 5 9 17 22 23 26 33 29 23 19 19 20 22 26 24 24 24 21 22 25 29
24 39 55 69 87 84 70 44 48 48 58 60 60 58 48 43 42 36 28 21 14 12 12 14 18 21 29 31 31 25 20 18 19 20 25 28 25 24 21 20 19 19 24
24 36 45 52 73 76 77 63 55 63 61 59 62 58 51 49 44 36 29 22 17 15 15 17 19 25 30 30 24 18 15 15 19 23 24 25 25 22 21 21 21 23 25
26 32 40 47 63 71 76 62 57 58 54 61 63 60 54 48 44 37 31 24 20 15 17 20 23 29 31 25 18 14 16 20 22 24 24 25 24 23 24 22 23 24 28
32 34 39 48 59 69 80 73 66 59 58 60 63 60 55 50 43 36 30 25 21 17 17 18 24 28 22 14 14 14 16 18 20 24 27 30 27 21 20 23 24 28 33
36 39 44 53 57 68 76 83 72 66 63 64 64 62 58 49 42 38 35 28 22 19 15 20 23 16 8 9 13 16 19 21 23 25 26 22 19 16 20 21 27 30 33
40 54 61 61 57 61 71 89 80 74 69 69 67 63 53 46 42 42 34 28 22 13 15 17 11 5 6 11 15 20 23 23 20 18 18 17 14 15 18 22 29 29 28
47 53 58 66 72 72 75 80 88 80 74 72 67 59 55 47 47 41 36 28 16 9 10 10 5 6 7 14 19 19 18 19 18 18 18 13 17 20 23 24 25 27 29
42 48 58 64 67 66 72 77 87 85 78 73 70 65 63 58 52 43 36 25 15 10 12 8 7 5 7 11 12 13 14 17 19 20 18 16 18 24 26 25 26 27 30
37 37 36 38 45 58 64 64 74 85 82 77 74 73 68 58 51 43 33 20 13 11 12 12 9 4 1 5 10 10 10 13 19 20 20 20 22 28 33 34 28 27 25
36 33 29 30 35 44 53 59 60 86 83 81 80 73 64 58 51 42 29 22 15 15 19 14 11 4 2 3 8 10 9 12 13 17 17 21 29 36 37 34 29 27 25
15 17 17 17 23 32 44 49 58 84 83 83 80 72 63 58 50 38 28 20 17 20 18 16 10 7 5 5 5 8 10 11 10 13 18 24 32 39 40 35 29 27 29
15 17 17 15 17 24 36 51 69 82 81 75 72 68 62 53 43 35 25 21 23 22 22 17 13 9 8 6 7 10 12 10 10 13 16 21 33 40 39 34 32 33 36
21 19 19 17 19 29 45 59 69 74 72 73 70 67 61 52 40 29 26 27 28 26 22 19 16 11 9 9 11 10 12 13 16 20 24 24 32 38 37 31 29 30 30
23 22 19 17 23 36 48 60 65 62 64 65 71 67 57 44 31 28 35 40 33 28 24 22 17 13 12 12 10 9 13 15 18 22 24 25 30 34 28 31 31 32 30
20 17 18 23 35 46 48 48 54 60 64 64 62 57 44 37 33 36 44 43 37 30 26 23 17 13 13 12 9 8 9 11 17 23 27 24 26 27 27 25 28 32 35
19 20 23 32 43 50 47 47 52 54 58 63 53 48 43 34 37 46 46 38 31 26 23 21 15 11 11 9 6 2 7 12 16 20 20 16 16 17 19 22 25 27 31
22 25 32 47 60 61 58 56 54 57 54 56 63 56 47 41 49 52 44 37 30 26 21 16 12 9 5 5 6 6 9 11 14 13 17 14 14 14 16 20 23 27 33
Wind_Direction_850mb
218 223 224 229 233 229 224 219 216 212 218 230 231 224 212 195 179 164 148 132 117 101 88 79 63 50 38 34 28 23 18 12 14 30 11 331 287 9 17 13 11 4 1
216 217 218 221 223 223 215 211 213 218 232 238 238 225 201 179 166 155 143 133 119 107 93 75 56 44 34 25 21 18 18 16 11 17 6 353 345 350 358 2 7 4 2
213 214 213 213 213 214 210 212 219 226 238 245 224 203 187 174 165 157 150 137 126 109 83 64 49 38 28 21 16 14 13 17 13 11 27 357 344 337 337 346 347 355 357
216 218 213 213 214 210 209 216 223 231 244 235 233 219 214 186 174 163 155 146 131 103 80 59 42 31 22 15 11 6 3 6 7 7 4 1 350 343 328 333 338 345 343
215 214 213 213 206 207 207 210 221 234 239 237 225 216 199 193 180 169 164 153 133 103 73 51 31 18 14 10 4 359 354 352 354 356 357 350 344 337 330 327 333 335 341
223 215 213 202 202 207 205 175 3 329 253 233 227 208 210 200 187 177 173 161 142 115 81 45 15 5 2 359 357 353 347 343 339 342 348 344 340 335 333 325 327 330 334
229 215 202 194 204 198 161 154 296 276 247 230 219 207 209 210 197 189 177 168 153 124 82 20 354 350 348 349 353 348 340 336 329 325 333 339 336 334 329 324 322 326 332
236 216 203 201 205 190 183 217 259 235 227 216 214 208 205 204 197 194 185 183 174 164 223 328 334 337 335 338 350 343 335 323 319 323 331 342 337 329 325 321 321 330 330
225 209 205 211 210 204 203 224 255 217 214 212 212 207 204 201 199 195 193 196 192 208 250 304 322 327 331 339 343 336 327 318 319 323 332 338 339 338 332 325 328 327 326
200 205 209 212 211 203 206 221 225 216 211 208 207 206 206 199 198 199 200 203 210 233 260 296 320 327 331 333 335 331 317 312 315 321 327 329 334 341 335 329 327 322 319
213 211 220 217 209 207 213 211 215 205 205 205 204 204 200 196 197 200 205 212 223 238 262 289 310 327 333 336 335 331 319 317 321 322 324 331 339 341 338 333 325 320 321
222 215 221 217 207 211 216 213 210 208 204 205 200 198 199 198 196 202 209 215 225 249 279 294 316 325 329 328 332 332 326 323 323 324 330 332 336 335 333 333 326 322 325
231 225 221 219 212 217 216 217 213 208 205 203 200 199 196 194 199 206 214 219 232 252 277 298 315 316 318 328 333 334 332 330 329 327 326 324 325 326 330 336 328 325 326
249 241 236 235 225 218 215 214 209 207 204 201 200 199 195 196 205 211 215 226 233 253 273 307 308 304 324 329 334 332 327 327 325 325 328 338 343 336 337 340 342 337 336
254 250 250 243 230 219 215 212 210 206 202 199 198 197 196 200 214 211 215 225 230 258 292 305 281 298 315 322 330 332 331 339 344 343 343 351 6 354 349 339 330 333 331
264 259 255 249 241 228 222 214 207 202 198 196 194 193 200 209 209 211 217 221 220 254 294 275 249 267 311 333 338 349 0 15 33 36 26 29 8 357 351 352 349 335 331
281 277 269 263 252 236 228 222 210 201 196 195 194 200 205 211 207 208 213 204 216 270 267 204 213 250 327 342 359 11 21 38 32 27 22 20 11 9 2 359 357 353 344
288 289 283 271 252 242 231 219 214 200 197 195 197 202 202 202 201 204 194 200 218 239 187 185 205 223 320 23 13 23 29 26 15 30 34 26 12 356 346 339 339 339 339
284 289 288 273 259 244 231 217 206 200 196 196 199 199 202 201 200 191 187 198 214 188 186 197 191 193 150 61 49 41 36 12 24 27 23 10 359 353 349 350 349 348 343
299 306 302 275 248 229 225 214 205 198 197 197 198 199 200 201 188 183 185 198 189 187 197 189 190 181 159 124 70 53 58 45 41 24 8 358 357 357 358 -0 0 355 351
301 303 296 272 241 220 207 200 197 199 197 197 197 198 192 184 178 180 188 184 181 189 185 183 181 172 154 116 93 80 73 58 21 7 357 350 352 356 359 3 3 358 349
293 289 275 256 229 201 191 191 191 194 195 196 195 187 174 171 174 186 179 172 167 167 168 172 167 170 164 137 115 90 61 34 19 2 353 346 347 351 353 357 353 346 351
265 260 255 237 207 194 194 189 193 195 191 190 182 169 168 171 175 179 173 158 153 147 149 154 160 165 156 145 125 76 30 16 8 0 352 346 343 347 354 355 356 358 357
265 255 238 211 192 186 183 191 187 182 183 173 165 167 169 172 171 170 166 161 156 147 144 142 158 157 148 150 125 56 19 9 1 359 353 349 348 352 1 3 360 4 5
249 238 218 198 181 173 171 174 171 171 174 169 172 182 179 178 174 169 169 170 165 163 156 142 154 154 158 158 135 22 359 3 356 0 357 359 357 4 5 9 12 12 13
250 227 208 188 175 170 170 178 178 172 174 184 182 181 186 181 173 173 173 175 177 176 174 170 183 195 198 243 255 305 335 340 354 358 356 1 3 9 15 18 18 16 17